Regional Weather Roundup
Issued by NWS

Home | Current Version | Previous Version | Text Only | Print | Product List | Glossary On
Versions: 1 2 3 4 5 6 7 8 9 10 11 12 13 14 15 16 17 18 19 20 21 22 23 24 25 26 27 28 29 30 31 32 33 34 35 36 37 38 39 40 41 42 43 44 45 46 47 48 49 50
000
ASUS43 KDTX 252301
RWRMI
MICHIGAN HOURLY REGIONAL WEATHER ROUNDUP
NATIONAL WEATHER SERVICE DETROIT/PONTIAC MI
700 PM EDT MON MAY 25 2015

NOTE: "FAIR" INDICATES FEW OR NO CLOUDS BELOW 12,000 FEET WITH NO
SIGNIFICANT WEATHER AND/OR OBSTRUCTION TO VISIBILITY.

MIZ047>049-052>055-059>063-066>070-074>076-081>083-260000-
SOUTHEAST LOWER MICHIGAN

CITY           SKY/WX    TMP DP  RH WIND       PRES   REMARKS
ADRIAN         MOSUNNY   79  60  52 W15G26    29.96R
ALMA           CLOUDY    75  61  63 SW16G28   29.90R
ANN ARBOR      PTSUNNY   79  60  52 SW20G36   29.94R
BAD AXE        CLOUDY    71  64  81 SW12G17   29.88F
CARO           MOSUNNY   73  65  77 SW15G21   29.89R
DETROIT CITY   PTSUNNY   80  61  52 SW22G30   29.92S
DETROIT        PTSUNNY   81  61  50 S24G35    29.94S
FLINT          PTSUNNY   72  65  78 SW10      29.92S
GROSSE ILE     PTSUNNY   75  63  64 S17G25    29.93S
HILLSDALE      PTSUNNY   78  60  54 SW18      29.97S
HOWELL         PTSUNNY   78  61  55 SW20G25   29.92S

CITY           SKY/WX    TMP DP  RH WIND       PRES   REMARKS
JACKSON        PTSUNNY   79  59  50 SW21G35   29.93S
LAMBERTVILLE   MOSUNNY   81  59  47 SW14G24   29.97S
LANSING        PTSUNNY   75  65  70 W14G23    29.92S
LAPEER         PTSUNNY   72  63  73 W6        29.92R
MASON          PTSUNNY   75  64  67 W10       29.92S
MONROE         MOSUNNY   81  61  50 SW18G28   29.94S
MT. CLEMENS    PTSUNNY   80  62  54 SW20G32   29.90S
PONTIAC        PTSUNNY   79  60  52 SW15G26   29.91S
PORT HOPE        N/A    N/A N/A N/A SW8G16    29.85S
PORT HURON     PTSUNNY   77  63  61 S16G29    29.91S
TRI CITIES     MOSUNNY   77  64  64 SW21      29.88R
MIDLAND        CLOUDY    75  61  60 SW13G24   29.87R
TROY           PTSUNNY   82  60  46 SW15G32   29.93S
SAGINAW HB     PTSUNNY   73  66  78 SW14G23   29.88S
$$
MIZ043>046-050>051-056>058-064>065-071>073-077>080-260000-
SOUTHWEST LOWER MICHIGAN

CITY           SKY/WX    TMP DP  RH WIND       PRES   REMARKS
BATTLE CREEK   PTSUNNY   77  63  61 W18G24    29.95R
BENTON HARBOR  PTSUNNY   73  59  61 SW14      29.94S
BIG RAPIDS     PTSUNNY   72  60  67 SW18G26   29.88S
COLDWATER      PTSUNNY   78  57  48 SW15G26   29.96R
FREMONT        FAIR      71  61  69 SW20G26   29.90R
HOLLAND        MOSUNNY   73  60  63 SW20G25   29.93S
GRAND RAPIDS   PTSUNNY   74  62  66 SW24      29.93R
IONIA          CLOUDY    76  60  58 SW18G26   29.91R
KALAMAZOO      PTSUNNY   77  61  57 W15       29.95R
LUDINGTON      MOSUNNY   68  60  75 SW12G21   29.86S
MARSHALL       PTSUNNY   78  59  52 SW15G22   29.94R
MOUNT PLEASANT CLOUDY    75  60  60 W16G24    29.88R
MUSKEGON       PTSUNNY   69  56  62 SW14      29.90S
SOUTH HAVEN    PTSUNNY   74  58  56 SW12G18   29.94S
$$
MIZ016>042-260000-
NORTHERN LOWER MICHIGAN

CITY           SKY/WX    TMP DP  RH WIND       PRES   REMARKS
ALPENA         PTSUNNY   77  62  59 SW10      29.78S
BEAVER ISLAND  CLOUDY    59  56  90 SW17G25   29.76F
BELLAIRE       MOSUNNY   72  61  68 SW9G25    29.80R
CADILLAC       PTSUNNY   71  61  70 SW14G24   29.86R
CHARLEVOIX     PTSUNNY   70  61  73 SW10G17   29.81R
FRANKFORT      SUNNY     67  56  66 SW13G22   29.82S
GAYLORD        CLOUDY    72  64  76 SW16G24   29.81R
HARBOR SPRINGS CLOUDY    64  58  80 W6        29.78R
HOUGHTON LAKE  CLOUDY    71  60  68 SW15G24   29.85R
MANISTEE       MOSUNNY   72  61  68 SW17G23   29.85R
OSCODA         MOSUNNY   78  61  54 SW20G30   29.81R
PELLSTON       CLOUDY    70  61  73 SW8       29.78R
ROGERS CITY    CLOUDY    66  63  90 CALM      29.77S
TRAVERSE CITY  PTSUNNY   73  62  68 SW13G18   29.79S
$$
MIZ007>008-015-260000-
EASTERN UPPER MICHIGAN

CITY           SKY/WX    TMP DP  RH WIND       PRES   REMARKS
KINROSS        CLOUDY    61  61 100 SW10G17   29.76S
MACKINAC ISLAN LGT RAIN  51  51 100 W14G20    29.78R
NEWBERRY       CLOUDY    58  58  97 SW16      29.73S FOG
S. S. MARIE    CLOUDY    59  57  93 S7        29.75S FOG
$$
MIZ004>006-011>014-085-260000-
CENTRAL UPPER MICHIGAN

CITY           SKY/WX    TMP DP  RH WIND       PRES   REMARKS
MANISTIQUE     PTSUNNY   49  48  96 S9        29.74S
ESCANABA       PTSUNNY   64  57  77 S7        29.73R
MENOMINEE      SUNNY     75  61  60 W7        29.74S
SAWYER-GWINN   CLOUDY    68  63  83 SW13      29.71R
$$
MIZ001>003-009>011-084-260000-
WESTERN UPPER MICHIGAN

CITY           SKY/WX    TMP DP  RH WIND       PRES   REMARKS
IRON MOUNTAIN  PTSUNNY   71  60  68 W12G22    29.72S
HOUGHTON       CLOUDY    53  51  93 S5        29.69R
COPPER HARBOR    N/A     44  42  93 VRB3      29.69R
IRONWOOD       PTSUNNY   61  61 100 W10       29.69R
$$

ABBREVIATIONS USED IN REMARKS
   TC - TEMPERATURE IN CELSIUS
  WCI - WIND CHILL INDEX
   HX - HEAT INDEX
  VSB - VISIBILITY



USA.gov is the U.S. government's official web portal to all federal, state and local government web resources and services.